Weather History for Bolton Field, OH

Change the Weather History Date:

Monday, February 3, 2014

  Actual Average Record
Temperature  
Mean Temperature 22 °F -  
Max Temperature 30 °F 37 °F 55 °F (2003)
Min Temperature 16 °F 24 °F 6 °F (2007)
Degree Days  
Heating Degree Days 43    
Moisture  
Dew Point 18 °F    
Average Humidity 80    
Maximum Humidity 89    
Minimum Humidity 64    
Precipitation  
Precipitation 0.00 in - - ()
Sea Level Pressure  
Sea Level Pressure 30.24 in    
Wind  
Wind Speed 10 mph (NNW)    
Max Wind Speed 14 mph    
Max Gust Speed 16 mph    
Visibility 10 miles    
Events      
Averages and records for this station are not official NWS values.
T = Trace of Precipitation, MM = Missing Value Source: NWS Daily Summary

Daily Weather History Graph

Daily Weather History Graph

Search for Another Location

Airport:

Trip Planner

Search our weather history database for the weather conditions in past years. The results will help you decide how hot, cold, wet, or windy it might be!

Date:

Astronomy

Feb. 03, 2014 Rise Set
Actual Time 7:38 AM EST 5:54 PM EST
Civil Twilight 7:10 AM EST 6:22 PM EST
Nautical Twilight 6:38 AM EST 6:55 PM EST
Astronomical Twilight 6:06 AM EST 7:26 PM EST
Moon 9:40 AM EST (2/3) 10:43 PM EST (2/3)
Length of Visible Light 11h 12m
Length of Day
10h 15m
Waxing Crescent, 19% of the Moon is Illuminated
Feb 3
Waxing Crescent
Feb 6
First Quarter
Feb 14
Full
Feb 22
Last Quarter
Mar 1
New

Hourly Weather History & Observations

Time (EST) Temp. Windchill Dew Point Humidity Pressure Visibility Wind Dir Wind Speed Gust Speed Precip Events Conditions
12:15 AM 25.7 °F - 21.9 °F 86% 30.19 in 10.0 mi North - - N/A   Overcast
12:35 AM 25.7 °F - 22.1 °F 86% 30.17 in 10.0 mi North - - N/A   Overcast
12:55 AM 25.5 °F - 22.1 °F 87% 30.16 in 10.0 mi North - - N/A   Overcast
1:15 AM 25.7 °F 15.1 °F 22.6 °F 88% 30.17 in 10.0 mi North 11.5 mph - N/A   Overcast
1:35 AM 25.5 °F - 22.8 °F 89% 30.15 in 7.0 mi North - - N/A   Overcast
1:55 AM 25.5 °F 15.5 °F 22.5 °F 88% 30.16 in 10.0 mi North 10.4 mph - N/A   Overcast
2:15 AM 25.7 °F - 22.3 °F 87% 30.15 in 10.0 mi North - - N/A   Overcast
2:35 AM 25.7 °F - 22.1 °F 86% 30.15 in 10.0 mi North - - N/A   Overcast
2:55 AM 25.7 °F - 21.7 °F 85% 30.16 in 10.0 mi North - - N/A   Overcast
3:15 AM 25.5 °F 16.2 °F 21.6 °F 85% 30.13 in 10.0 mi North 9.2 mph - N/A   Overcast
3:35 AM 25.5 °F 14.9 °F 21.6 °F 85% 30.13 in 10.0 mi North 11.5 mph - N/A   Overcast
3:55 AM 25.2 °F 13.9 °F 21.2 °F 85% 30.12 in 10.0 mi North 12.7 mph - N/A   Overcast
4:15 AM 24.8 °F 14.6 °F 19.9 °F 82% 30.14 in 10.0 mi North 10.4 mph - N/A   Overcast
4:35 AM 24.6 °F 12.7 °F 19.0 °F 79% 30.12 in 10.0 mi North 13.8 mph - N/A   Overcast
4:55 AM 24.6 °F - 19.2 °F 80% 30.12 in 10.0 mi North - - N/A   Overcast
5:15 AM 24.6 °F 13.8 °F 19.9 °F 82% 30.15 in 10.0 mi North 11.5 mph - N/A   Overcast
5:35 AM 24.6 °F 13.8 °F 20.1 °F 83% 30.14 in 10.0 mi North 11.5 mph - N/A   Overcast
5:55 AM 24.3 °F 12.7 °F 20.1 °F 84% 30.13 in 10.0 mi North 12.7 mph - N/A   Overcast
6:15 AM 24.3 °F 13.3 °F 20.3 °F 85% 30.16 in 10.0 mi North 11.5 mph 16.1 mph N/A   Overcast
7:20 AM 24.8 °F 14.0 °F 19.4 °F 80% 30.18 in 10.0 mi North 11.5 mph - N/A   Overcast
7:50 AM 24.8 °F 14.0 °F 21.2 °F 86% 30.19 in 10.0 mi North 11.5 mph - N/A   Overcast
8:55 AM 24.8 °F 13.4 °F 19.4 °F 80% 30.24 in 10.0 mi North 12.7 mph - N/A   Overcast
9:50 AM 24.8 °F 14.0 °F 19.4 °F 80% 30.26 in 10.0 mi North 11.5 mph - N/A   Overcast
10:55 AM 24.8 °F 14.6 °F 19.4 °F 80% 30.27 in 10.0 mi NW 10.4 mph - N/A   Overcast
11:50 AM 26.6 °F 17.5 °F 19.4 °F 74% 30.28 in 10.0 mi NW 9.2 mph - N/A   Mostly Cloudy
12:50 PM 28.4 °F 21.2 °F 17.6 °F 64% 30.26 in 10.0 mi NNE 6.9 mph - N/A   Clear
1:50 PM 28.4 °F 22.2 °F 17.6 °F 64% 30.26 in 10.0 mi NNW 5.8 mph - N/A   Clear
2:50 PM 28.4 °F 20.4 °F 17.6 °F 64% 30.27 in 10.0 mi NW 8.1 mph - N/A   Clear
3:50 PM 28.4 °F 19.7 °F 19.4 °F 69% 30.27 in 10.0 mi NW 9.2 mph - N/A   Clear
4:50 PM 28.4 °F 19.1 °F 17.6 °F 64% 30.30 in 10.0 mi NW 10.4 mph - N/A   Clear
5:50 PM 24.8 °F 16.1 °F 15.8 °F 69% 30.29 in 10.0 mi NNW 8.1 mph - N/A   Clear
6:35 PM 23.5 °F - 15.6 °F 72% 30.30 in 10.0 mi North - - N/A   Clear
6:50 PM 21.2 °F 16.4 °F 15.8 °F 80% 30.31 in 10.0 mi WNW 3.5 mph - N/A   Clear
6:55 PM 21.7 °F - 15.3 °F 76% 30.31 in 10.0 mi North - - N/A   Clear
7:15 PM 21.0 °F - 15.1 °F 78% 30.33 in 10.0 mi North - - N/A   Clear
7:35 PM 21.0 °F - 14.9 °F 77% 30.33 in 10.0 mi North - - N/A   Clear
7:55 PM 20.1 °F - 14.5 °F 79% 30.34 in 10.0 mi North - - N/A   Clear
8:15 PM 19.8 °F - 14.0 °F 78% 30.35 in 10.0 mi North - - N/A   Clear
8:35 PM 20.1 °F - 14.2 °F 78% 30.34 in 10.0 mi North - - N/A   Clear
8:55 PM 20.3 °F - 14.7 °F 79% 30.33 in 10.0 mi North - - N/A   Clear
9:15 PM 19.6 °F - 14.0 °F 79% 30.33 in 10.0 mi North - - N/A   Clear
9:35 PM 19.8 °F - 14.5 °F 80% 30.33 in 10.0 mi North - - N/A   Clear
9:55 PM 19.2 °F - 14.0 °F 80% 30.33 in 10.0 mi North - - N/A   Clear
10:15 PM 18.5 °F - 13.8 °F 82% 30.33 in 10.0 mi North - - N/A   Clear
10:35 PM 19.2 °F - 14.0 °F 80% 30.34 in 10.0 mi North - - N/A   Clear
10:55 PM 18.0 °F 11.1 °F 13.1 °F 81% 30.35 in 10.0 mi NNW 4.6 mph - N/A   Clear
11:15 PM 16.7 °F - 12.9 °F 85% 30.36 in 10.0 mi North - - N/A   Clear
11:35 PM 17.6 °F 12.3 °F 13.6 °F 84% 30.35 in 10.0 mi NNW 3.5 mph - N/A   Clear
11:55 PM 16.9 °F - 13.1 °F 85% 30.35 in 10.0 mi North - - N/A   Clear